Location: Voyageurs National Park
(48.5020°N, 92.9292°W)
Time: 08:21:38
(UTC-06:00)

Daily predictions for brighter satellites

Satellite Brightness Start Highest point End
(mag) Time Altitude Azimuth Time Altitude Azimuth Time Altitude Azimuth
NOSS 3-4 (A) 4.5 16:42:19 10° NW 16:48:20 32° NNE 16:54:38 10° E
NOSS 3-4 (C) 4.5 16:42:25 10° NW 16:48:26 32° NNE 16:54:44 10° E
MTI 3.8 16:46:51 10° NNE 16:50:11 74° ESE 16:53:29 10° S
Cosmos 1833 Rocket 3.6 16:49:17 10° N 16:53:59 26° NE 16:58:39 10° E
SL-16 R/B 3.7 16:50:22 10° N 16:56:04 41° WNW 17:01:46 10° SW
Meteor 1-5 Rocket 4.1 16:50:39 10° N 16:56:05 78° ENE 17:01:41 10° SSE
MOZ.5/SAFIR/RUBIN 5/SL-8 4.2 16:51:53 10° N 16:56:31 65° WNW 17:01:09 10° SSW
Cosmos 2082 Rocket 3.0 16:51:53 10° NNW 16:56:51 30° NE 17:01:47 10° ESE
Cosmos 1975 3.7 16:59:28 10° N 17:03:04 28° ENE 17:06:35 10° SE
Cosmos 1743 4.5 17:01:19 10° NE 17:03:11 13° ENE 17:05:03 10° E
ATLAS 2AS CENTAUR R/B 3.3 16:56:01 10° NW 17:04:12 81° SW 17:11:52 10° SSE
Cosmos 1238 Rocket 3.3 17:02:13 10° SSE 17:04:43 25° E 17:07:23 10° NNE
Cosmos 494 Rocket 4.0 16:59:43 10° NNW 17:04:58 68° ENE 17:10:12 10° SSE
YAOGAN 1 2.9 17:01:32 10° SE 17:05:37 42° ENE 17:09:44 10° N
Ariane Rocket 4.0 17:01:28 10° S 17:06:24 53° W 17:11:23 10° NNW
SPOT 3 Rocket 3.7 17:01:22 10° SE 17:06:24 54° ENE 17:11:27 10° N
MSX 4.2 17:01:31 10° SE 17:06:49 40° ENE 17:12:09 10° N
CZ-4 R/B 1.5 17:02:59 10° SSE 17:07:04 59° ENE 17:11:09 10° N
COSMOS 2487 3.4 17:04:03 10° N 17:07:12 27° ENE 17:10:18 10° ESE
Cosmos 1500 4.2 17:04:58 10° NNE 17:08:12 25° ENE 17:11:25 10° SE
Cosmos 1378 Rocket 4.1 17:04:30 10° SSW 17:08:46 62° WNW 17:13:05 10° N
ERBS 4.1 17:06:18 10° NW 17:08:52 19° N 17:11:14 11° NE
Meteor 1-12 Rocket 4.5 17:03:44 10° N 17:09:24 52° ENE 17:15:07 10° SSE
Meteor 2-19 Rocket 4.4 17:03:38 10° N 17:09:43 70° ENE 17:15:44 10° SSE
GEOS 3 Rocket 4.3 17:08:40 10° E 17:13:14 34° NE 17:17:49 10° NNW
Cosmos 1484 Rocket 3.9 17:11:12 10° ESE 17:14:06 22° ENE 17:16:59 10° NNE
CZ-2C R/B 2.5 17:09:55 10° SSE 17:14:53 61° ENE 17:19:59 10° N
USA 32 4.1 17:09:54 10° SSE 17:15:00 58° E 17:20:08 10° NNE
MOS 1 4.3 17:10:15 10° SSE 17:15:52 69° ENE 17:21:30 10° NNW
Cosmos 2263 Rocket 3.7 17:11:48 10° WSW 17:16:47 31° NW 17:21:49 10° NNE
SJ-12 3.9 17:15:55 10° SSE 17:20:00 69° ENE 17:24:07 10° N
Cosmos 1455 Rocket 3.0 17:15:58 10° N 17:20:23 65° ENE 17:24:47 10° SSE
Cosmos 1125 Rocket 4.4 17:15:21 10° SW 17:20:30 49° WNW 17:25:42 10° NNE
SL-8 Rocket 4.1 17:21:12 10° N 17:27:24 82° W 17:33:33 10° S
IDEFIX/ARIANE 42P 2.5 17:26:05 10° SSE 17:31:16 82° ENE 17:36:29 10° NNW
AQUARIUS 4.1 17:30:04 10° SSE 17:34:35 88° ENE 17:39:07 10° NNW
Thor Agena Rocket 3.6 17:32:29 10° NNE 17:37:41 66° ESE 17:42:54 10° S
Cosmos 2366 rocket 4.1 17:33:26 10° N 17:39:50 88° W 17:46:09 10° S
Cosmos 1844 Rocket 2.9 17:35:14 10° SW 17:40:50 71° WNW 17:46:30 10° NNE
Cosmos 1812 2.6 17:39:25 10° S 17:43:15 77° E 17:47:08 10° NNE
Cosmos 2251 Rocket 4.5 17:39:55 10° NNW 17:45:07 52° WSW 17:50:15 10° S
Cosmos 2218 Rocket 4.3 17:41:07 10° NNW 17:47:23 70° W 17:53:32 10° S
CORIOLIS 4.4 17:47:18 10° S 17:52:42 76° WSW 17:58:08 10° NNW
Abrixas 3.2 17:50:23 10° W 17:53:16 48° SSW 17:54:52 22° SE
Okean 1 3.2 17:51:57 10° S 17:55:59 77° E 18:00:05 10° NNE
Meteor 1-18 Rocket 4.4 17:56:26 10° SSW 18:02:06 80° WNW 18:07:57 10° N
Cosmos 1844 4.1 17:58:50 10° SW 18:04:20 63° WNW 18:09:22 13° NNE
Meteor 2-21 4.4 17:59:38 10° N 18:05:53 84° E 18:12:01 10° S
Cosmos 1346 Rocket 2.6 18:02:54 10° S 18:06:47 67° E 18:08:50 26° NNE
ISS -3.0 18:03:54 10° W 18:07:10 57° NNW 18:07:47 47° NNE
Timation 2 Rocket 4.2 18:00:31 10° NNW 18:07:22 89° WSW 18:14:16 10° SSE
BREEZE M DEB (TANK) 3.7 18:01:02 10° SW 18:07:33 29° SSE 18:08:45 24° SE
Cosmos 2297 3.9 18:02:20 10° S 18:07:42 48° ESE 18:10:21 28° NE
COSMO-SKYMED 1 2.6 18:10:34 27° NNE 18:12:45 56° E 18:17:01 10° S
Cosmos 1821 Rocket 3.9 18:08:00 10° N 18:14:01 57° ENE 18:20:00 10° SSE
NOAA 12 4.1 18:13:00 10° SE 18:18:09 56° ENE 18:23:18 10° N
SL-24 DEB 4.4 18:13:39 10° N 18:18:26 77° W 18:23:06 10° SSW
Intercosmos 25 2.7 18:15:49 10° N 18:19:10 85° ENE 18:22:23 10° S
Cosmos 2278 Rocket 2.3 18:13:52 10° SSW 18:19:31 75° WNW 18:23:40 19° NNE
Cosmos 1605 Rocket 4.3 18:18:28 10° N 18:24:26 41° ENE 18:30:16 10° SE
Meteor 2-14 Rocket 4.4 18:19:41 10° N 18:25:54 88° E 18:32:03 10° S
USA 234 3.2 18:22:15 29° NE 18:25:54 86° NNW 18:32:28 10° WSW
CZ-3B DEB 2.7 18:21:28 10° WSW 18:25:57 87° NNW 18:31:38 28° ENE
SL-8 R/B 3.7 18:24:42 10° WSW 18:29:27 68° SSE 18:30:27 52° ESE
Cosmos 407 Rocket 3.7 18:28:27 10° NNW 18:33:03 45° NE 18:33:03 45° NE
METEOR-M 4.0 18:28:35 10° SSE 18:33:52 65° ENE 18:39:10 10° N
Cosmos 2056 Rocket 4.4 18:29:10 10° SSE 18:32:41 31° SE 18:32:41 31° SE
Spot 2 Rocket 4.3 18:36:40 34° NNE 18:36:40 34° NNE 18:39:59 10° N
Cosmos 1025 Rocket 3.6 18:33:17 10° S 18:36:25 42° SSE 18:36:25 42° SSE
SL-24 R/B - RUBIN 2 4.5 18:31:47 10° SSW 18:38:13 82° SE 18:41:10 37° NE
Cosmos 1833 Rocket 2.9 18:32:49 10° NNW 18:38:27 70° WSW 18:44:02 10° SSE
Cosmos 1743 3.1 18:35:37 10° NNW 18:39:29 62° W 18:43:17 10° S
Cosmos 921 Rocket 2.8 18:35:55 10° SSW 18:40:10 81° ESE 18:40:22 78° ENE
NOSS 3-4 (A) 3.7 18:33:15 10° NW 18:40:12 83° NE 18:45:07 23° SE
NOSS 3-4 (C) 3.7 18:33:21 10° NW 18:40:19 83° NE 18:45:08 24° SE
Cosmos 2082 Rocket 2.8 18:35:44 10° NW 18:41:17 58° WSW 18:46:50 10° S
FengYun 1-2 T 4.3 18:42:28 51° ENE 18:42:32 51° ENE 18:48:00 10° N
Nadezhda 3 Rocket 4.1 18:36:44 10° SSW 18:42:57 78° W 18:49:17 10° N
Meteor 1-19 Rocket 4.2 18:39:08 10° S 18:44:57 85° E 18:49:13 20° NNE
ERBS 4.5 18:43:18 10° NW 18:44:38 19° NNW 18:44:38 19° NNW
Cosmos 1484 Rocket 4.4 18:45:01 10° SSW 18:48:25 33° W 18:51:49 10° NNW
NOSS 3-3 (A) 4.3 18:43:43 10° SW 18:49:59 67° NW 18:53:02 34° NNE
NOSS 3-3 (C) 4.3 18:43:48 10° SW 18:50:05 68° NW 18:53:07 34° NNE
GEOS 3 Rocket 3.9 18:47:42 22° SSE 18:51:03 66° SW 18:56:11 10° NW
BREEZE-M DEB (TANK) 4.3 18:48:56 10° W 18:49:43 21° W 18:49:43 21° W
Meteor 1-15 Rocket 4.2 18:46:06 10° N 18:52:03 74° ENE 18:57:53 10° SSE
Cosmos 1371 Rocket 4.0 18:47:03 10° S 18:52:09 64° ESE 18:52:09 64° ESE
Tiangong 1 3.8 18:50:46 10° SW 18:51:36 15° SSW 18:51:36 15° SSW
SKYMED 2 4.4 18:59:12 32° NNW 19:00:50 48° WNW 19:05:01 10° SW
Meteor 1-23 Rocket 4.1 19:05:48 10° S 19:11:31 89° E 19:11:35 88° NE
Resurs 01 Rocket 4.3 19:21:02 10° NNW 19:21:02 10° NNW 19:21:07 10° NNW
Meteor 2-4 Rocket 3.8 19:15:31 10° SSW 19:20:52 68° WNW 19:21:04 67° WNW
Cosmos 1190 Rocket 4.3 19:17:03 10° NNW 19:22:12 64° WSW 19:22:12 64° WSW
Cosmos 2278 Rocket 4.3 20:00:43 10° W 20:04:36 19° NW 20:05:32 18° NNW
USA 234 4.1 20:09:37 44° NW 20:09:37 44° NW 20:14:47 10° W
CZ-3B DEB 4.1 20:54:36 10° WNW 20:59:55 53° NW 20:59:55 53° NW
